Shirley, NY

3:39 AM EDT on March 30, 2017 (GMT -0400)
Brookhaven

Weather History for KHWV - January, 2014

Change the Weather History Date:

Friday, January 24, 2014

  Actual Average (KISP) Record (KISP)
Temperature  
Mean Temperature 13 °F -  
Max Temperature 18 °F 34 °F 59 °F (1989)
Min Temperature 9 °F 20 °F 4 °F (2011)
Degree Days  
Heating Degree Days 52    
Moisture  
Dew Point -1 °F    
Average Humidity 52    
Maximum Humidity 61    
Minimum Humidity 41    
Precipitation  
Precipitation 0.00 in - - ()
Sea Level Pressure  
Sea Level Pressure 30.28 in    
Wind  
Wind Speed 9 mph (West)    
Max Wind Speed 15 mph    
Max Gust Speed 21 mph    
Visibility 10 miles    
Events      
Averages and records for this station are not official NWS values.
T = Trace of Precipitation, MM = Missing Value Source: NWS Daily Summary

Daily Weather History Graph

Daily Weather History Graph

Search for Another Location

Airport or City:

Trip Planner

Search our weather history database for the weather conditions in past years. The results will help you decide how hot, cold, wet, or windy it might be!

Date:

Astronomy

Jan. 24, 2014 Rise Set
Actual Time 7:08 AM EST 4:59 PM EST
Civil Twilight 6:38 AM EST 5:28 PM EST
Nautical Twilight 6:05 AM EST 6:01 PM EST
Astronomical Twilight 5:33 AM EST 6:34 PM EST
Moon 12:32 AM EST (1/24) 11:16 AM EST (1/24)
Length of Visible Light 10h 49m
Length of Day
9h 50m
Last Quarter, 45% of the Moon is Illuminated
Jan 24
Last Quarter
Jan 30
New
Feb 6
First Quarter
Feb 14
Full
Feb 22
Last Quarter

Hourly Weather History & Observations

Time (EST) Temp. Windchill Dew Point Humidity Pressure Visibility Wind Dir Wind Speed Gust Speed Precip Events Conditions
12:56 AM 9.0 °F 0.6 °F -2.0 °F 61% 30.27 in 10.0 mi Variable 4.6 mph - N/A   Scattered Clouds
1:56 AM 12.0 °F -1.3 °F -0.9 °F 56% 30.28 in 10.0 mi West 10.4 mph - N/A   Scattered Clouds
2:56 AM 12.0 °F 2.7 °F -2.0 °F 53% 30.29 in 10.0 mi West 5.8 mph - N/A   Partly Cloudy
3:56 AM 12.0 °F -1.3 °F -0.9 °F 56% 30.28 in 10.0 mi WNW 10.4 mph - N/A   Clear
4:56 AM 10.9 °F -3.4 °F -2.9 °F 54% 30.29 in 10.0 mi NW 11.5 mph - N/A   Clear
5:56 AM 10.0 °F -2.9 °F -2.9 °F 56% 30.32 in 10.0 mi NW 9.2 mph - N/A   Clear
6:56 AM 10.0 °F -1.9 °F -2.9 °F 56% 30.34 in 10.0 mi NW 8.1 mph - N/A   Clear
7:56 AM 10.0 °F -4.5 °F -2.0 °F 58% 30.35 in 10.0 mi NW 11.5 mph - N/A   Clear
8:56 AM 12.0 °F -2.7 °F -2.0 °F 53% 30.37 in 10.0 mi NW 12.7 mph 19.6 mph N/A   Clear
9:56 AM 12.9 °F -1.6 °F -0.9 °F 54% 30.37 in 10.0 mi NW 12.7 mph 20.7 mph N/A   Clear
10:56 AM 14.0 °F -0.2 °F -0.9 °F 52% 30.36 in 10.0 mi NW 12.7 mph - N/A   Clear
11:56 AM 15.1 °F 1.1 °F -0.0 °F 51% 30.33 in 10.0 mi West 12.7 mph - N/A   Clear
12:56 PM 16.0 °F 2.3 °F -0.9 °F 47% 30.30 in 10.0 mi WNW 12.7 mph - N/A   Clear
1:56 PM 16.0 °F 1.1 °F -0.9 °F 47% 30.30 in 10.0 mi West 15.0 mph 20.7 mph N/A   Clear
2:56 PM 17.1 °F 5.0 °F -0.9 °F 45% 30.27 in 10.0 mi West 10.4 mph - N/A   Clear
3:56 PM 17.1 °F 8.7 °F -2.9 °F 41% 30.25 in 10.0 mi West 5.8 mph - N/A   Clear
4:56 PM 15.1 °F 5.2 °F -2.9 °F 45% 30.25 in 10.0 mi WSW 6.9 mph - N/A   Clear
5:56 PM 15.1 °F 6.4 °F -2.0 °F 47% 30.24 in 10.0 mi WSW 5.8 mph - N/A   Clear
6:56 PM 14.0 °F 6.5 °F -2.0 °F 49% 30.24 in 10.0 mi SSW 4.6 mph - N/A   Clear
7:56 PM 14.0 °F 5.1 °F -2.0 °F 49% 30.22 in 10.0 mi WSW 5.8 mph - N/A   Clear
8:56 PM 15.1 °F 5.2 °F -0.9 °F 49% 30.21 in 10.0 mi WSW 6.9 mph - N/A   Clear
9:56 PM 16.0 °F 2.3 °F 1.9 °F 54% 30.19 in 10.0 mi WSW 12.7 mph - N/A   Clear
10:56 PM 16.0 °F 4.4 °F 1.9 °F 54% 30.18 in 10.0 mi WSW 9.2 mph - N/A   Mostly Cloudy
11:56 PM 18.0 °F 7.7 °F 3.0 °F 52% 30.13 in 10.0 mi SW 8.1 mph - N/A   Partly Cloudy